Change the Weather History Date:

Thursday, September 19, 2013

  Actual Average Record
Temperature  
Mean Temperature 58 °F -  
Max Temperature 76 °F 70 °F 80 °F (1997)
Min Temperature 39 °F 49 °F 38 °F (2011)
Degree Days  
Heating Degree Days 8    
Growing Degree Days 8 (Base 50)    
Moisture  
Dew Point 43 °F    
Average Humidity 96    
Maximum Humidity 100    
Minimum Humidity 41    
Precipitation  
Precipitation 0.00 in - - ()
Sea Level Pressure  
Sea Level Pressure 30.14 in    
Wind  
Wind Speed 2 mph (NE)    
Max Wind Speed 8 mph    
Max Gust Speed -    
Visibility 3 miles    
Events Fog    
Averages and records for this station are not official NWS values.
T = Trace of Precipitation, MM = Missing Value Source: NWS Daily Summary

Daily Weather History Graph

Daily Weather History Graph

Search for Another Location

Airport or City:

Trip Planner

Search our weather history database for the weather conditions in past years. The results will help you decide how hot, cold, wet, or windy it might be!

Date:

Astronomy

Sep. 19, 2013 Rise Set
Actual Time 6:34 AM EDT 6:52 PM EDT
Civil Twilight 6:06 AM EDT 7:20 PM EDT
Nautical Twilight 5:33 AM EDT 7:53 PM EDT
Astronomical Twilight 4:59 AM EDT 8:26 PM EDT
Moon 6:47 PM EDT (9/19) 6:41 AM EDT (9/19)
Length of Visible Light 13h 13m
Length of Day
12h 17m
Full, 100% of the Moon is Illuminated
Sep 19
Full
Sep 26
Last Quarter
Oct 4
New
Oct 11
First Quarter
Oct 18
Full

Hourly Weather History & Observations

Time (EDT) Temp. Windchill Dew Point Humidity Pressure Visibility Wind Dir Wind Speed Gust Speed Precip Events Conditions
12:09 AM 46.4 °F - 46.4 °F 100% 30.17 in 2.5 mi NE 2.3 mph - N/A   Clear
12:10 AM 46.4 °F - 46.4 °F 100% 30.17 in 2.0 mi NE 2.3 mph - N/A   Clear
12:11 AM 46.4 °F - 44.6 °F 93% 30.17 in 1.5 mi NE 2.3 mph - N/A   Clear
12:12 AM 44.6 °F - 44.6 °F 100% 30.17 in 1.2 mi NE 2.3 mph - N/A   Clear
12:13 AM 44.6 °F - 44.6 °F 100% 30.17 in 1.2 mi NE 2.3 mph - N/A   Clear
12:18 AM 44.6 °F - 44.6 °F 100% 30.17 in 1.5 mi Calm Calm - N/A   Clear
12:19 AM 44.6 °F - 44.6 °F 100% 30.17 in 1.8 mi Calm Calm - N/A   Clear
12:20 AM 44.6 °F - 44.6 °F 100% 30.17 in 2.0 mi Calm Calm - N/A   Clear
12:21 AM 44.6 °F - 44.6 °F 100% 30.17 in 2.5 mi Calm Calm - N/A   Clear
12:22 AM 44.6 °F - 44.6 °F 100% 30.17 in 4.0 mi Calm Calm - N/A   Clear
12:42 AM 44.6 °F - 44.6 °F 100% 30.16 in 2.5 mi Calm Calm - N/A   Clear
12:46 AM 44.6 °F - 44.6 °F 100% 30.16 in 2.0 mi Calm Calm - N/A   Clear
12:48 AM 44.6 °F - 44.6 °F 100% 30.16 in 1.8 mi Calm Calm - N/A   Clear
12:51 AM 44.6 °F - 44.6 °F 100% 30.16 in 2.0 mi North 1.2 mph - N/A   Clear
12:52 AM 44.6 °F - 44.6 °F 100% 30.16 in 1.8 mi NNE 2.3 mph - N/A   Clear
12:53 AM 44.6 °F - 44.6 °F 100% 30.16 in 1.5 mi NNE 2.3 mph - N/A   Clear
12:54 AM 44.6 °F - 44.6 °F 100% 30.16 in 1.2 mi NNE 2.3 mph - N/A   Clear
12:55 AM 44.6 °F - 44.6 °F 100% 30.16 in 1.2 mi NNE 2.3 mph - N/A   Clear
12:56 AM 44.6 °F - 44.6 °F 100% 30.16 in 1.0 mi NNE 2.3 mph - N/A   Clear
12:58 AM 44.6 °F - 44.4 °F 99% 30.18 in 1.0 mi NNE 2.3 mph - N/A   Clear
12:59 AM 44.6 °F - 44.6 °F 100% 30.16 in 1.0 mi NNE 1.2 mph - N/A   Clear
1:00 AM 44.6 °F - 44.6 °F 100% 30.16 in 0.8 mi NNE 1.2 mph - N/A   Clear
1:19 AM 44.6 °F - 44.6 °F 100% 30.16 in 0.5 mi NNE 2.3 mph - N/A Fog Fog
1:25 AM 44.6 °F - 44.6 °F 100% 30.16 in 0.8 mi NE 2.3 mph - N/A   Clear
1:27 AM 46.4 °F - 44.6 °F 93% 30.16 in 0.8 mi NE 2.3 mph - N/A   Clear
1:28 AM 46.4 °F - 44.6 °F 93% 30.16 in 0.8 mi NE 2.3 mph - N/A   Clear
1:29 AM 46.4 °F - 44.6 °F 93% 30.16 in 1.0 mi NE 2.3 mph - N/A   Clear
1:31 AM 44.6 °F - 44.6 °F 100% 30.16 in 1.2 mi NE 2.3 mph - N/A   Clear
1:34 AM 44.6 °F 43.1 °F 44.6 °F 100% 30.16 in 1.0 mi NE 3.5 mph - N/A   Clear
1:35 AM 44.6 °F 43.1 °F 44.6 °F 100% 30.16 in 1.0 mi NE 3.5 mph - N/A   Clear
1:38 AM 44.6 °F - 44.6 °F 100% 30.16 in 1.0 mi NE 2.3 mph - N/A   Clear
1:40 AM 42.8 °F - 42.8 °F 100% 30.16 in 1.2 mi NE 2.3 mph - N/A   Clear
1:41 AM 42.8 °F - 42.8 °F 100% 30.16 in 1.2 mi NE 2.3 mph - N/A   Clear
1:42 AM 42.8 °F - 42.8 °F 100% 30.16 in 1.5 mi NE 2.3 mph - N/A   Clear
1:45 AM 42.8 °F - 41.0 °F 93% 30.16 in 1.8 mi ENE 2.3 mph - N/A   Clear
1:52 AM 42.8 °F - 41.0 °F 93% 30.16 in 2.0 mi Calm Calm - N/A   Clear
1:53 AM 41.0 °F - 41.0 °F 100% 30.16 in 3.0 mi NNE 1.2 mph - N/A   Clear
1:58 AM 41.5 °F 39.6 °F 41.4 °F 99% 30.17 in 9.0 mi NE 3.5 mph - N/A   Clear
2:02 AM 41.0 °F 39.0 °F 41.0 °F 100% 30.15 in 2.5 mi NE 3.5 mph - N/A   Clear
2:03 AM 41.0 °F - 41.0 °F 100% 30.15 in 2.0 mi NE 2.3 mph - N/A   Clear
2:04 AM 42.8 °F - 41.0 °F 93% 30.15 in 1.8 mi NE 2.3 mph - N/A   Clear
2:10 AM 44.6 °F - 42.8 °F 93% 30.15 in 1.5 mi NE 2.3 mph - N/A   Clear
2:14 AM 44.6 °F - 42.8 °F 93% 30.15 in 1.2 mi NNE 2.3 mph - N/A   Clear
2:15 AM 44.6 °F - 42.8 °F 93% 30.15 in 1.2 mi NNE 2.3 mph - N/A   Clear
2:16 AM 42.8 °F - 42.8 °F 100% 30.15 in 1.0 mi NNE 2.3 mph - N/A   Clear
2:17 AM 42.8 °F - 42.8 °F 100% 30.15 in 0.8 mi NNE 2.3 mph - N/A   Clear
2:18 AM 42.8 °F - 42.8 °F 100% 30.15 in 0.8 mi NNE 2.3 mph - N/A   Clear
2:19 AM 42.8 °F - 42.8 °F 100% 30.15 in 0.5 mi NNE 2.3 mph - N/A Fog Fog
2:29 AM 44.6 °F - 44.6 °F 100% 30.14 in 0.8 mi ENE 1.2 mph - N/A   Clear
2:31 AM 44.6 °F - 44.6 °F 100% 30.14 in 1.0 mi SE 2.3 mph - N/A   Clear
2:32 AM 44.6 °F - 44.6 °F 100% 30.14 in 1.0 mi SSE 2.3 mph - N/A   Clear
2:33 AM 44.6 °F - 44.6 °F 100% 30.14 in 1.2 mi SSE 1.2 mph - N/A   Clear
2:34 AM 44.6 °F - 44.6 °F 100% 30.14 in 1.5 mi SE 1.2 mph - N/A   Clear
2:35 AM 44.6 °F - 44.6 °F 100% 30.14 in 1.8 mi Calm Calm - N/A   Clear
2:36 AM 44.6 °F - 44.6 °F 100% 30.14 in 2.0 mi Calm Calm - N/A   Clear
2:37 AM 44.6 °F - 44.6 °F 100% 30.14 in 2.5 mi Calm Calm - N/A   Clear
2:38 AM 44.6 °F - 44.6 °F 100% 30.14 in 4.0 mi Calm Calm - N/A   Clear
2:54 AM 42.8 °F - 42.8 °F 100% 30.14 in 2.5 mi Calm Calm - N/A   Clear
2:58 AM 43.2 °F - 43.0 °F 99% 30.16 in 2.5 mi Calm Calm - N/A   Clear
3:04 AM 42.8 °F - 42.8 °F 100% 30.14 in 3.0 mi Calm Calm - N/A   Clear
3:05 AM 42.8 °F - 42.8 °F 100% 30.15 in 2.5 mi Calm Calm - N/A   Clear
3:06 AM 42.8 °F - 42.8 °F 100% 30.15 in 2.0 mi Calm Calm - N/A   Clear
3:07 AM 42.8 °F - 42.8 °F 100% 30.14 in 1.8 mi NNE 1.2 mph - N/A   Clear
3:08 AM 42.8 °F - 41.0 °F 93% 30.15 in 1.5 mi NE 1.2 mph - N/A   Clear
3:10 AM 41.0 °F - 41.0 °F 100% 30.15 in 1.2 mi Calm Calm - N/A   Clear
3:11 AM 41.0 °F - 41.0 °F 100% 30.14 in 1.2 mi Calm Calm - N/A   Clear
3:12 AM 41.0 °F - 41.0 °F 100% 30.14 in 1.0 mi Calm Calm - N/A   Clear
3:13 AM 41.0 °F - 41.0 °F 100% 30.14 in 1.0 mi NNE 1.2 mph - N/A   Clear
3:14 AM 42.8 °F - 41.0 °F 93% 30.14 in 0.8 mi NE 2.3 mph - N/A   Clear
3:22 AM 42.8 °F - 42.8 °F 100% 30.14 in 0.5 mi NE 2.3 mph - N/A Fog Fog
3:37 AM 42.8 °F - 42.8 °F 100% 30.14 in 0.8 mi NE 2.3 mph - N/A   Clear
3:40 AM 42.8 °F - 42.8 °F 100% 30.14 in 0.8 mi NE 2.3 mph - N/A   Clear
3:41 AM 42.8 °F - 42.8 °F 100% 30.14 in 1.0 mi NE 2.3 mph - N/A   Clear
3:42 AM 42.8 °F - 42.8 °F 100% 30.14 in 1.0 mi NE 2.3 mph - N/A   Clear
3:43 AM 42.8 °F - 42.8 °F 100% 30.14 in 1.2 mi ENE 2.3 mph - N/A   Clear
3:44 AM 42.8 °F - 42.8 °F 100% 30.14 in 1.5 mi ENE 2.3 mph - N/A   Clear
3:45 AM 42.8 °F - 42.8 °F 100% 30.14 in 2.0 mi NE 1.2 mph - N/A   Clear
3:46 AM 42.8 °F - 42.8 °F 100% 30.14 in 3.0 mi Calm Calm - N/A   Clear
3:58 AM 41.5 °F - 41.4 °F 99% 30.16 in 10.0 mi NNE 2.3 mph - N/A   Clear
4:04 AM 41.0 °F 38.0 °F 41.0 °F 100% 30.14 in 2.5 mi NE 4.6 mph - N/A   Clear
4:06 AM 39.2 °F 37.0 °F 39.2 °F 100% 30.14 in 2.0 mi NE 3.5 mph - N/A   Clear
4:07 AM 39.2 °F 37.0 °F 39.2 °F 100% 30.14 in 1.5 mi NE 3.5 mph - N/A   Clear
4:08 AM 39.2 °F - 39.2 °F 100% 30.14 in 1.2 mi NE 2.3 mph - N/A   Clear
4:09 AM 39.2 °F - 39.2 °F 100% 30.14 in 1.0 mi NE 2.3 mph - N/A   Clear
4:10 AM 39.2 °F - 39.2 °F 100% 30.14 in 1.0 mi NE 2.3 mph - N/A   Clear
4:11 AM 39.2 °F - 39.2 °F 100% 30.14 in 0.8 mi NE 2.3 mph - N/A   Clear
4:15 AM 41.0 °F - 41.0 °F 100% 30.14 in 0.8 mi NNE 2.3 mph - N/A   Clear
4:16 AM 41.0 °F - 41.0 °F 100% 30.14 in 1.0 mi NNE 2.3 mph - N/A   Clear
4:17 AM 41.0 °F - 41.0 °F 100% 30.14 in 1.0 mi NNE 2.3 mph - N/A   Clear
4:18 AM 41.0 °F 39.0 °F 41.0 °F 100% 30.14 in 1.2 mi NNE 3.5 mph - N/A   Clear
4:19 AM 41.0 °F 39.0 °F 41.0 °F 100% 30.14 in 1.5 mi NNE 3.5 mph - N/A   Clear
4:20 AM 41.0 °F 39.0 °F 41.0 °F 100% 30.14 in 1.8 mi NNE 3.5 mph - N/A   Clear
4:21 AM 41.0 °F 39.0 °F 41.0 °F 100% 30.14 in 2.0 mi NNE 3.5 mph - N/A   Clear
4:22 AM 41.0 °F 39.0 °F 41.0 °F 100% 30.14 in 3.0 mi NNE 3.5 mph - N/A   Clear
4:30 AM 41.0 °F - 41.0 °F 100% 30.14 in 2.5 mi NNE 2.3 mph - N/A   Clear
4:31 AM 41.0 °F - 41.0 °F 100% 30.14 in 2.0 mi NNE 2.3 mph - N/A   Clear
4:32 AM 41.0 °F - 41.0 °F 100% 30.14 in 1.5 mi NNE 2.3 mph - N/A   Clear
4:33 AM 41.0 °F - 41.0 °F 100% 30.14 in 1.2 mi NNE 2.3 mph - N/A   Clear
4:34 AM 41.0 °F - 41.0 °F 100% 30.14 in 1.2 mi NNE 2.3 mph - N/A   Clear
4:40 AM 42.8 °F - 41.0 °F 93% 30.14 in 1.2 mi NNE 1.2 mph - N/A   Clear
4:41 AM 41.0 °F - 41.0 °F 100% 30.14 in 1.5 mi NNE 1.2 mph - N/A   Clear
4:42 AM 41.0 °F - 41.0 °F 100% 30.14 in 2.0 mi NNE 1.2 mph - N/A   Clear
4:43 AM 41.0 °F - 41.0 °F 100% 30.14 in 2.5 mi NNE 1.2 mph - N/A   Clear
4:46 AM 41.0 °F - 41.0 °F 100% 30.14 in 2.0 mi NNE 2.3 mph - N/A   Clear
4:48 AM 41.0 °F - 41.0 °F 100% 30.14 in 1.8 mi NNE 2.3 mph - N/A   Clear
4:54 AM 42.8 °F - 41.0 °F 93% 30.14 in 2.0 mi ENE 2.3 mph - N/A   Clear
4:56 AM 42.8 °F - 42.8 °F 100% 30.14 in 2.5 mi East 2.3 mph - N/A   Clear
4:57 AM 42.8 °F - 42.8 °F 100% 30.14 in 3.0 mi East 2.3 mph - N/A   Clear
4:58 AM 42.8 °F - 42.8 °F 100% 30.16 in 3.0 mi East 1.2 mph - N/A   Clear
5:13 AM 41.0 °F - 41.0 °F 100% 30.14 in 2.5 mi Calm Calm - N/A   Clear
5:18 AM 39.2 °F - 39.2 °F 100% 30.14 in 2.0 mi Calm Calm - N/A   Clear
5:22 AM 39.2 °F - 39.2 °F 100% 30.14 in 1.8 mi NNE 2.3 mph - N/A   Clear
5:23 AM 39.2 °F - 39.2 °F 100% 30.14 in 1.5 mi NNE 2.3 mph - N/A   Clear
5:24 AM 39.2 °F - 39.2 °F 100% 30.14 in 1.2 mi NNE 2.3 mph - N/A   Clear
5:26 AM 39.2 °F 37.0 °F 39.2 °F 100% 30.14 in 1.0 mi NNE 3.5 mph - N/A   Clear
5:27 AM 39.2 °F 37.0 °F 39.2 °F 100% 30.14 in 1.0 mi NNE 3.5 mph - N/A   Clear
5:32 AM 39.2 °F 37.0 °F 39.2 °F 100% 30.14 in 1.0 mi NNE 3.5 mph - N/A   Clear
5:33 AM 39.2 °F - 39.2 °F 100% 30.14 in 1.2 mi NNE 2.3 mph - N/A   Clear
5:34 AM 39.2 °F - 39.2 °F 100% 30.14 in 1.2 mi NNE 2.3 mph - N/A   Clear
5:35 AM 39.2 °F - 39.2 °F 100% 30.14 in 1.5 mi NNE 2.3 mph - N/A   Clear
5:37 AM 39.2 °F - 39.2 °F 100% 30.14 in 1.8 mi NNE 2.3 mph - N/A   Clear
5:45 AM 41.0 °F 39.0 °F 41.0 °F 100% 30.14 in 1.5 mi NNE 3.5 mph - N/A   Clear
5:46 AM 41.0 °F 39.0 °F 41.0 °F 100% 30.14 in 1.2 mi NNE 3.5 mph - N/A   Clear
5:47 AM 41.0 °F 39.0 °F 41.0 °F 100% 30.14 in 1.2 mi NNE 3.5 mph - N/A   Clear
5:48 AM 41.0 °F 39.0 °F 41.0 °F 100% 30.14 in 1.0 mi NNE 3.5 mph - N/A   Clear
5:50 AM 41.0 °F 39.0 °F 41.0 °F 100% 30.14 in 1.0 mi NE 3.5 mph - N/A   Clear
5:53 AM 39.2 °F 37.0 °F 39.2 °F 100% 30.14 in 1.0 mi NE 3.5 mph - N/A   Clear
5:55 AM 39.2 °F - 39.2 °F 100% 30.15 in 1.0 mi NE 2.3 mph - N/A   Clear
5:56 AM 39.2 °F 37.0 °F 39.2 °F 100% 30.15 in 1.2 mi NE 3.5 mph - N/A   Clear
5:57 AM 39.2 °F 37.0 °F 39.2 °F 100% 30.15 in 1.5 mi NE 3.5 mph - N/A   Clear
5:58 AM 39.2 °F 37.0 °F 39.2 °F 100% 30.17 in 1.8 mi NE 3.5 mph - N/A   Clear
5:59 AM 41.0 °F - 39.2 °F 93% 30.15 in 2.0 mi NE 2.3 mph - N/A   Clear
6:03 AM 39.2 °F 37.0 °F 39.2 °F 100% 30.15 in 1.5 mi NE 3.5 mph - N/A   Clear
6:04 AM 39.2 °F 37.0 °F 39.2 °F 100% 30.15 in 1.2 mi NE 3.5 mph - N/A   Clear
6:05 AM 39.2 °F 37.0 °F 39.2 °F 100% 30.15 in 1.2 mi ENE 3.5 mph - N/A   Clear
6:09 AM 39.2 °F - 39.2 °F 100% 30.15 in 1.2 mi ENE 2.3 mph - N/A   Clear
6:10 AM 39.2 °F - 39.2 °F 100% 30.15 in 1.5 mi NE 1.2 mph - N/A   Clear
6:11 AM 41.0 °F - 39.2 °F 93% 30.15 in 1.8 mi Calm Calm - N/A   Clear
6:12 AM 41.0 °F - 41.0 °F 100% 30.15 in 2.5 mi NNE 1.2 mph - N/A   Clear
6:13 AM 41.0 °F - 41.0 °F 100% 30.15 in 3.0 mi ENE 1.2 mph - N/A   Clear
6:42 AM 39.2 °F - 39.2 °F 100% 30.15 in 2.0 mi North 1.2 mph - N/A   Clear
6:58 AM 39.7 °F - 39.6 °F 99% 30.17 in 7.0 mi NNE 1.2 mph - N/A Fog Shallow Fog
7:52 AM 44.6 °F - 44.6 °F 100% 30.16 in 10.0 mi Calm Calm - N/A   Clear
7:58 AM 45.9 °F - 45.5 °F 99% 30.18 in 10.0 mi Calm Calm - N/A   Clear
8:58 AM 52.7 °F - 52.3 °F 99% 30.18 in 10.0 mi Variable 2.3 mph - N/A   Clear
9:58 AM 57.7 °F - 50.5 °F 77% 30.17 in 10.0 mi Calm Calm - N/A   Clear
10:58 AM 62.8 °F - 49.3 °F 61% 30.16 in 10.0 mi NNW 2.3 mph - N/A   Clear
11:58 AM 67.6 °F - 52.9 °F 59% 30.15 in 10.0 mi NW 4.6 mph - N/A   Clear
12:08 PM 68.0 °F - 51.8 °F 56% 30.13 in 10.0 mi WSW 3.5 mph - N/A   Clear
12:58 PM 71.6 °F - 51.4 °F 49% 30.13 in 10.0 mi North 1.2 mph - N/A   Clear
1:58 PM 73.2 °F - 48.9 °F 42% 30.12 in 10.0 mi Calm Calm - N/A   Clear
2:58 PM 76.5 °F - 51.1 °F 41% 30.09 in 10.0 mi Variable 3.5 mph - N/A   Clear
3:58 PM 76.8 °F - 51.4 °F 41% 30.07 in 10.0 mi Variable 4.6 mph - N/A   Clear
4:58 PM 76.5 °F - 54.7 °F 47% 30.07 in 10.0 mi SSW 8.1 mph - N/A   Clear
5:58 PM 74.7 °F - 55.8 °F 52% 30.07 in 10.0 mi South 5.8 mph - N/A   Clear
6:58 PM 68.4 °F - 57.4 °F 68% 30.07 in 10.0 mi SSE 3.5 mph - N/A   Clear
7:58 PM 57.7 °F - 57.4 °F 99% 30.08 in 10.0 mi Calm Calm - N/A   Clear
8:58 PM 57.0 °F - 56.5 °F 98% 30.09 in 10.0 mi SSE 3.5 mph - N/A   Clear
9:58 PM 54.9 °F - 54.3 °F 98% 30.10 in 10.0 mi South 2.3 mph - N/A   Clear
10:58 PM 53.1 °F - 52.7 °F 99% 30.09 in 10.0 mi SSE 2.3 mph - N/A   Clear
11:54 PM 51.8 °F - 51.8 °F 100% 30.06 in 2.5 mi Calm Calm - N/A   Clear
11:55 PM 51.8 °F - 51.8 °F 100% 30.06 in 2.0 mi Calm Calm - N/A   Clear
11:56 PM 51.8 °F - 51.8 °F 100% 30.06 in 1.8 mi Calm Calm - N/A   Clear
11:58 PM 52.2 °F - 52.0 °F 99% 30.08 in 1.2 mi Calm Calm - N/A   Clear
11:59 PM 51.8 °F - 51.8 °F 100% 30.06 in 1.0 mi North 1.2 mph - N/A   Clear